Location: Barcelona
(41.3830°N, 2.1830°E)
Time: 07:54:31
(UTC+02:00)

ISS - Pass Details

Date: 19 October 2017
Orbit: 400 x 408 km, 51.6° (Epoch: 24 October)

Event Time Altitude Azimuth Distance (km) Brightness Sun altitude
Rises 19:41:34 0° 285° (WNW) 2,321 1.5 -7.8°
Reaches altitude 10° 19:45:01 10° 247° (WSW) 1,458 0.4 -8.4°
Maximum altitude 19:45:54 11° 231° (SW) 1,406 -0.1 -8.6°
Drops below altitude 10° 19:46:47 10° 215° (SW) 1,456 -0.4 -8.7°
Sets 19:50:13 0° 176° (S) 2,311 0.0 -9.4°
